Regional Weather Roundup
Issued by NWS

Home | Current Version | Previous Version | Graphics & Text | Print | Product List | Glossary On
Versions: 1 2 3 4 5 6 7 8 9 10 11 12 13 14 15 16 17 18 19 20 21 22 23 24 25 26 27 28 29 30 31 32 33 34 35 36 37 38 39 40 41 42 43 44 45 46 47 48 49 50
465
ASUS45 KCYS 300210
RWRWY

WYOMING REGIONAL WEATHER ROUNDUP
NATIONAL WEATHER SERVICE CHEYENNE WY
800 PM MDT SUN MAY 29 2016

NOTE:  "FAIR" INDICATES FEW OR NO CLOUDS BELOW 12,000 FEET
WITH NO SIGNIFICANT WEATHER AND/OR OBSTRUCTIONS TO VISIBILITY.

WYZ001-300300-
YELLOWSTONE NATIONAL PARK

CITY           SKY/WX    TMP DP  RH WIND       PRES   REMARKS
LK YELLOWSTONE   N/A     54  27  35 VRB5      30.17F
W YELLOWSTONE  NOT AVBL

$$
WYZ002>013-054>058-071-098>099-300300-
NORTHERN WYOMING

CITY           SKY/WX    TMP DP  RH WIND       PRES   REMARKS
JACKSON        NOT AVBL
CODY           FAIR      70  36  28 SW6       29.97S
GREYBULL       FAIR      76  30  18 SW10      29.91S
WORLAND        FAIR      71  35  26 E7        29.92S
SHERIDAN       FAIR      71  45  39 E3        29.94S
BUFFALO        FAIR      68  41  37 NE6       29.99F
GILLETTE       FAIR      69  43  38 E7        29.98S
HULETT         FAIR      66  46  48 E6        30.01S
NEWCASTLE      FAIR      73  30  20 W5        29.99S

$$
WYZ014>020-022>026-101>103-300300-
CENTRAL WYOMING

CITY           SKY/WX    TMP DP  RH WIND       PRES   REMARKS
BIG PINEY      LGT RAIN  50  41  71 N8        30.18R
PINEDALE       CLOUDY    50  39  66 N13G21    30.19R
DUBOIS         FAIR      54  32  43 W12       30.12F
LANDER         FAIR      63  35  35 W20G33    30.01S
RIVERTON       FAIR      66  37  34 S14       30.03R
CASPER         FAIR      64  43  46 N8        30.02R
DOUGLAS          N/A    N/A N/A N/A MISG      30.03R

$$
WYZ021-027>030-104>119-300300-
SOUTHERN WYOMING

CITY           SKY/WX    TMP DP  RH WIND       PRES   REMARKS
EVANSTON       CLOUDY    58  38  47 S14       30.16R
KEMMERER         N/A     54  41  62 CALM      30.17R
FORT BRIDGER   CLEAR     55  45  67 S9        30.18S
ROCK SPRINGS   FAIR      58  35  42 SW10      30.14S
DIXON          FAIR      55  46  69 E12       30.21F
RAWLINS        FAIR      58  34  40 S17       30.14F
SARATOGA       MOCLDY    54  36  50 S9G24     30.18F
LARAMIE        CLOUDY    51  45  79 W15       30.21S
CHEYENNE       MOCLDY    62  39  42 NW13      30.15R
TORRINGTON     FAIR      67  47  48 S7        30.01R
PINE BLUFFS    FAIR      61  50  67 W3        30.10R

$$




USA.gov is the U.S. government's official web portal to all federal, state and local government web resources and services.